This is the latest recevied weather packets stored in our database for station/object KB9HUO. If no packets are shown the sender has not sent any weather packets the latest 10 day(s).
| Time | Temp. | Humidity | Pressure | Rain* | Wind** | Luminosity | Snow |
|---|---|---|---|---|---|---|---|
| 1788445148 | 30° C | 75% | 1018.2 hPa | 0 mm | - | 60 W/m² | - |
| 1788444838 | 29.44° C | 75% | 1018.3 hPa | 0 mm | - | 59 W/m² | - |
| 1788444534 | 29.44° C | 76% | 1018.5 hPa | 0 mm | - | 59 W/m² | - |
| 1788444228 | 28.89° C | 75% | 1018.5 hPa | 0 mm | - | 59 W/m² | - |
| 1788443924 | 28.33° C | 77% | 1018.4 hPa | 0 mm | - | 58 W/m² | - |
| 1788443619 | 28.33° C | 79% | 1018.5 hPa | 0 mm | - | 62 W/m² | - |
| 1788443318 | 27.78° C | 81% | 1018.4 hPa | 0 mm | - | 54 W/m² | - |
| 1788443013 | 27.22° C | 84% | 1018.5 hPa | 0 mm | - | 53 W/m² | - |
| 1788442711 | 27.22° C | 85% | 1018.5 hPa | 0 mm | - | 51 W/m² | - |
| 1788442407 | 26.67° C | 87% | 1018.6 hPa | 0 mm | - | 50 W/m² | - |
| 1788442102 | 26.11° C | 90% | 1018.6 hPa | 0 mm | - | 48 W/m² | - |
| 1788441798 | 25.56° C | 93% | 1018.7 hPa | 0 mm | - | 47 W/m² | - |
| 1788441492 | 25° C | 96% | 1018.6 hPa | 0 mm | - | 46 W/m² | - |
| 1788441192 | 25° C | 97% | 1018.8 hPa | 0 mm | - | 44 W/m² | - |
| 1788440881 | 24.44° C | 98% | 1018.6 hPa | 0 mm | - | 43 W/m² | - |
| 1788440581 | 23.89° C | 98% | 1018.7 hPa | 0 mm | - | 39 W/m² | - |
| 1788440274 | 23.89° C | 99% | 1018.8 hPa | 0 mm | - | 37 W/m² | - |
| 1788439970 | 23.33° C | 99% | 1018.6 hPa | 0 mm | - | 35 W/m² | - |
| 1788439669 | 23.33° C | 99% | 1018.8 hPa | 0 mm | - | 33 W/m² | - |
| 1788439365 | 22.78° C | 99% | 1018.8 hPa | 0 mm | - | 31 W/m² | - |
| 1788439063 | 22.78° C | 99% | 1018.8 hPa | 0 mm | - | 29 W/m² | - |
| 1788438762 | 22.22° C | 99% | 1018.8 hPa | 0 mm | - | 28 W/m² | - |
| 1788438461 | 22.22° C | 99% | 1019 hPa | 0 mm | - | 26 W/m² | - |
| 1788438156 | 21.67° C | 99% | 1018.7 hPa | 0 mm | - | 24 W/m² | - |
| 1788437854 | 21.67° C | 99% | 1018.7 hPa | 0 mm | - | 23 W/m² | - |
* Rain latest hour (hover to see other rain measurements)
** Current wind speed in m/s (hover to see current wind gust speed)